Погода в Конотопе

Украина / Сумская область     51°14′20″N   33°12′35″E
темп.,
°C
ветер,
м/с
пор.,
м/с
влажн.,
%
обл.,
%
осадки,
мм/ч
давл.,
гПа
погр.,
м
13 апреля, вт
вт1300:00+12ююв3478100 0.0 102057
03:00+10ююв3586100 0.0 102078
06:00+10ююв3789100 0.0 1021203
09:00+10ююв2688100 0.0 1021248
12:00+12ююв3681100 0.0 1021457
15:00+13юв457698 0.0 1020737
18:00+12ююв2580100 0.0 1019266
21:00+11ююв2484100 0.0 1019112
14 апреля, ср
ср1400:00+10ююв3584100 0.0 1019119
03:00+10ююв3485100 0.0 1018106
06:00+9юв3587100 0.0 1018113
09:00+11ююв358182 0.0 1017300
12:00+10вюв4683100 0.1 1017331
15:00+10юв2491100 0.8 1017195
18:00+12ююв237622 0.1 1016336
21:00+10юв338568 0.1 101661
15 апреля, чт
чт1500:00+8юв338493 0.0 101627
03:00+8вюв228883 0.0 101521
06:00+8в348628 0.0 101569
09:00+11вюв4675100 0.0 1015317
12:00+14ююв575698 0.1 10141250
15:00+15юв6751100 0.1 10131771
18:00+15юв255685 0.0 1012675
21:00+10юз3787100 0.4 1013351
16 апреля, пт
пт1600:00+9ююв229291 0.4 101351
03:00+9вюв2490100 0.4 1012142
06:00+8юв37935 0.3 1013166
09:00+9ю4676100 0.3 1014621
12:00+12ю455366 0.0 10151446
15:00+14ююв464325 0.0 10152028
18:00+13юз334593 0.0 10151013
21:00+10зсз3462100 0.0 1017103
17 апреля, сб
сб1700:00+9ссз3766100 0.0 1017169
03:00+8ссз3675100 0.0 1016159
06:00+8зсз3491100 1.1 1016127
09:00+10св3894100 6.3 1016630
12:00+9ююв5790100 0.6 1019535
15:00+9ю338688 1.5 1021509
18:00+10в2381100 0.0 1022453
21:00+9в269399 0.4 1023207